THY4KD LTAI-LTFM

Flight info

Callsign THY4KD
Flight time N/A
Altitude 36000
Route EKSEN UM855 SISPI
Aircraft B738/M-SDE2E3FGHIRWXY/LB1

Departure

Time 2026-05-04 11:10
Airport Antalya International Airport (LTAI)

Arrival

Time N/A
Airport İstanbul Airport (LTFM)
Time Latitude Longitude Altitude Speed Heading
2026-05-04 10:30 36.91294 30.80066 190 ft 0 kts 97°
2026-05-04 10:46 36.91295 30.80060 190 ft 4 kts 97°
2026-05-04 10:46 36.91298 30.80027 195 ft 4 kts 97°
2026-05-04 10:46 36.91301 30.79993 193 ft 4 kts 97°
2026-05-04 10:47 36.91304 30.79960 190 ft 4 kts 97°
2026-05-04 10:47 36.91307 30.79932 204 ft 4 kts 99°
2026-05-04 10:47 36.91317 30.79907 203 ft 4 kts 155°
2026-05-04 10:47 36.91343 30.79900 203 ft 4 kts 184°
2026-05-04 10:49 36.91348 30.79901 196 ft 0 kts 186°
2026-05-04 10:56 36.91270 30.79890 198 ft 8 kts 187°
2026-05-04 10:56 36.91206 30.79882 202 ft 10 kts 186°
2026-05-04 10:56 36.91138 30.79872 203 ft 10 kts 186°
2026-05-04 10:57 36.91072 30.79863 204 ft 9 kts 187°
2026-05-04 10:57 36.91008 30.79854 203 ft 9 kts 185°
2026-05-04 10:57 36.90945 30.79846 198 ft 9 kts 185°
2026-05-04 10:57 36.90899 30.79802 190 ft 9 kts 240°
2026-05-04 10:58 36.90857 30.79750 197 ft 9 kts 202°
2026-05-04 10:58 36.90799 30.79737 197 ft 8 kts 187°
2026-05-04 10:58 36.90741 30.79729 200 ft 9 kts 186°
2026-05-04 10:58 36.90673 30.79719 203 ft 10 kts 186°
2026-05-04 10:59 36.90605 30.79710 197 ft 10 kts 187°
2026-05-04 10:59 36.90539 30.79701 204 ft 10 kts 186°
2026-05-04 10:59 36.90474 30.79693 203 ft 9 kts 182°
2026-05-04 10:59 36.90418 30.79724 196 ft 9 kts 128°
2026-05-04 11:00 36.90397 30.79796 206 ft 9 kts 98°
2026-05-04 11:01 36.90329 30.80561 197 ft 15 kts 96°
2026-05-04 11:02 36.90317 30.80683 191 ft 13 kts 102°
2026-05-04 11:02 36.90252 30.80755 194 ft 13 kts 156°
2026-05-04 11:05 36.88570 30.80554 192 ft 16 kts 186°
2026-05-04 11:06 36.88461 30.80538 196 ft 15 kts 187°
2026-05-04 11:06 36.88359 30.80525 192 ft 15 kts 186°
2026-05-04 11:06 36.88260 30.80512 199 ft 14 kts 186°
2026-05-04 11:06 36.88176 30.80504 191 ft 9 kts 170°
2026-05-04 11:08 36.89247 30.80872 189 ft 141 kts
2026-05-04 11:10 36.96391 30.84008 5036 ft 161 kts 17°
2026-05-04 11:12 37.04130 30.87513 8993 ft 195 kts 17°
2026-05-04 11:12 37.05456 30.88146 9139 ft 215 kts 18°
2026-05-04 11:12 37.06926 30.88806 9303 ft 234 kts 10°
2026-05-04 11:12 37.08612 30.88760 9511 ft 254 kts 351°
2026-05-04 11:13 37.10377 30.88325 10022 ft 264 kts 349°
2026-05-04 11:13 37.12188 30.87865 10667 ft 267 kts 348°
2026-05-04 11:13 37.13989 30.87387 11524 ft 264 kts 347°
2026-05-04 11:13 37.15812 30.86911 12175 ft 269 kts 347°
2026-05-04 11:14 37.17663 30.86440 12891 ft 275 kts 347°
2026-05-04 11:14 37.19533 30.85969 13564 ft 279 kts 347°
2026-05-04 11:14 37.21453 30.85487 14178 ft 284 kts 347°
2026-05-04 11:16 37.35735 30.81891 18688 ft 312 kts 346°
2026-05-04 11:16 37.37876 30.81348 19293 ft 316 kts 346°
2026-05-04 11:16 37.40036 30.80799 19898 ft 318 kts 346°
2026-05-04 11:17 37.41467 30.80436 20311 ft 319 kts 346°